RS-44 & BREEZE-KM R/B (44909 NORAD) Tracking and Keplerian Element Data

This shows tracking and keplerian element data for the satellite.

Feedback or suggestion? Click here.




ElementValue
Catalog44909
NameRS-44 & BREEZE-KM R/B
Epoch Orbit27945
Epoch Day354.20678853
Epoch Year2025
RAAN98.6473
Inclination82.5215
Eccentricity0.0217313
Argument of Perigee202.5924
Mean Anonmoly156.5499
Mean Motion12.7974614
Decay Rate1.9E-07
L11 44909U 19096E 25354.20678853 .00000019 00000+0 31702-4 0 9995
L22 44909 82.5215 98.6473 0217313 202.5924 156.5499 12.79746140279456



Live tracking and technical data element details for RS-44 & BREEZE-KM R/B (NORAD 44909). RS-44 & BREEZE-KM R/B can be tracked NOW for your location showing map with azimuth and elevation plus other details from your city location.







IsCatalogInMostPopularTable: catalog: 44909, numindb: 4955
Update: records affected: 1



GetName: 44909 RS-44 & BREEZE-KM R/B

Hit Count: updated at: Sat, 18 Apr 2026 16:01:08 GMT